ARIANE 2 DEB, 26729

Orbit data source: Space-Track

ARIANE 2 DEB, 26729 is space debris in HEO originally from a launch on Fri, 27 Jan 1989 UTC launched from the French Guiana (FRGUI). Debris objects in space refer to the collection of defunct objects orbiting the Earth. Examples of debris include non-operational satellites, rocket bodies, and fragments generated from explosions, collisions, or faulty payload assembly.

Loading next visibility...
Identifier
26729, 1989-006G
Orbit
HEO
Country
Flag of FRFR
Related business
Manufacturer
EADS/LV
Mission
Spacecraft
Bus & Motor
Unknown
Mass
Unknown
Launch date (UTC)
1989-01-27 (37 years ago)
Launch vehicle
Unknown
Launch site
French Guiana (FRGUI)
Object type
Payload
Rocket body
Debris
Shape & HBR
Unknown shape, 3.4 m
Radar Cross Section
Large (>1 m²)

Expand to show TLE details & history
Last TLE update: 1 day ago

TLE from 1 day ago
0 ARIANE 2 DEB
1 26729U 89006G   25349.48748428  .00000045  00000-0  16275-3 0  9990
2 26729   8.3904  42.4381 7163480 141.6985 301.1691  2.31195170208096
Epoch: 2025-12-15T11:41Z
TLE epoch observation values (Epoch: 2025-12-15T11:41:58.641Z)
Latitude
0.00021°
Longitude
142.41132°
Altitude
20,594.161 km
Speed
3.613 km/s
True Right ascension
02h 49m 09s
True Declination
0° 00' 01"
Sunlit
Object was in daylight at epoch
Visualization orbit readout
Latitude
Unknown
Longitude
Unknown
Altitude
Unknown
Speed
Unknown
Apparent Right ascension
Unknown
Apparent Declination
Unknown
Sunlit
N/A
Visualization observer readout
Local Sidereal Time
09:54:24
Azimuth
Unknown
Elevation
Unknown
Doppler factor
Unknown
Orbital elements
Apogee altitude
35,096.413 km
Perigee altitude
476.148 km
Semi-major axis
24,164.418 km
Eccentricity
0.71635
Inclination
8.3904°
RAAN
42.4381°
Arg. of periapsis
141.6985°
True anomaly
218.08718°
Mean anomaly
301.1691°
Eccentric anomaly
260.66852°
Mean motion
0.5778 °/min
Orbital period
623.05 mins
BSTAR
0.00016275
Loading maneuver chart data...
Computing Atmospheric mass density...
Loading historical data...
Loading historical data...
Loading historical data...
Loading historical data...
Loading historical data...
Loading historical data...
Loading historical data...

Documentation

Showing up to 5 results
|